Time,TemperatureF,DewpointF,PressureIn,WindDirection,WindDirectionDegrees,WindSpeedMPH,WindSpeedGustMPH,Humidity,HourlyPrecipIn,Conditions,Clouds,dailyrainin,SoftwareType,DateUTC
2013-03-17 00:02:00,32.0,25.0,-100.00,NW,320,7.0,14.0,76,-99.99,,,-99.99,,2013-03-17 05:02:00,
2013-03-17 00:12:00,31.0,24.0,-100.00,NW,305,6.0,11.0,75,-99.99,,,-99.99,,2013-03-17 05:12:00,
2013-03-17 00:22:00,31.0,24.0,-100.00,NW,315,6.0,14.0,74,-99.99,,,-99.99,,2013-03-17 05:22:00,
2013-03-17 00:32:00,31.0,24.0,-100.00,NW,315,6.0,14.0,74,-99.99,,,-99.99,,2013-03-17 05:32:00,
2013-03-17 00:42:00,31.0,24.0,-100.00,NW,315,8.0,16.0,76,-99.99,,,-99.99,,2013-03-17 05:42:00,
2013-03-17 00:52:00,31.0,24.0,-100.00,NW,325,9.0,14.0,76,-99.99,,,-99.99,,2013-03-17 05:52:00,
2013-03-17 01:02:00,31.0,24.0,-100.00,NW,325,9.0,14.0,76,-99.99,,,-99.99,,2013-03-17 06:02:00,
2013-03-17 01:12:00,31.0,25.0,-100.00,NW,320,5.0,11.0,78,-99.99,,,-99.99,,2013-03-17 06:12:00,
2013-03-17 01:22:00,31.0,24.0,-100.00,NW,320,6.0,11.0,76,-99.99,,,-99.99,,2013-03-17 06:22:00,
2013-03-17 01:32:00,31.0,24.0,-100.00,NW,320,6.0,11.0,76,-99.99,,,-99.99,,2013-03-17 06:32:00,
2013-03-17 01:42:00,31.0,25.0,-100.00,NNW,340,4.0,9.0,78,-99.99,,,-99.99,,2013-03-17 06:42:00,
2013-03-17 01:52:00,30.0,25.0,-100.00,NNW,335,4.0,11.0,80,-99.99,,,-99.99,,2013-03-17 06:52:00,
2013-03-17 02:02:00,30.0,25.0,-100.00,NNW,335,4.0,11.0,80,-99.99,,,-99.99,,2013-03-17 07:02:00,
2013-03-17 02:12:00,30.0,24.0,-100.00,North,350,6.0,11.0,78,-99.99,,,-99.99,,2013-03-17 07:12:00,
2013-03-17 02:22:00,30.0,24.0,-100.00,NNW,335,6.0,14.0,78,-99.99,,,-99.99,,2013-03-17 07:22:00,
2013-03-17 02:32:00,30.0,24.0,-100.00,NNW,335,6.0,14.0,78,-99.99,,,-99.99,,2013-03-17 07:32:00,
2013-03-17 02:42:00,30.0,24.0,-100.00,North,0,5.0,11.0,78,-99.99,,,-99.99,,2013-03-17 07:42:00,
2013-03-17 02:52:00,30.0,24.0,-100.00,North,355,5.0,14.0,78,-99.99,,,-99.99,,2013-03-17 07:52:00,
2013-03-17 03:03:00,30.0,24.0,-100.00,North,355,5.0,14.0,78,-99.99,,,-99.99,,2013-03-17 08:03:00,
2013-03-17 03:13:00,29.0,21.0,-100.00,NNW,345,6.0,14.0,71,-99.99,,,-99.99,,2013-03-17 08:13:00,
2013-03-17 03:22:00,29.0,22.0,-100.00,NNE,20,5.0,14.0,76,-99.99,,,-99.99,,2013-03-17 08:22:00,
2013-03-17 03:32:00,29.0,22.0,-100.00,NNE,20,5.0,14.0,76,-99.99,,,-99.99,,2013-03-17 08:32:00,
2013-03-17 03:42:00,29.0,22.0,-100.00,North,0,4.0,12.0,76,-99.99,,,-99.99,,2013-03-17 08:42:00,
2013-03-17 03:52:00,29.0,21.0,-100.00,NNW,345,7.0,16.0,74,-99.99,,,-99.99,,2013-03-17 08:52:00,
2013-03-17 04:02:00,29.0,21.0,-100.00,NNW,345,7.0,16.0,74,-99.99,,,-99.99,,2013-03-17 09:02:00,
2013-03-17 04:12:00,28.0,21.0,-100.00,NW,315,6.0,16.0,73,-99.99,,,-99.99,,2013-03-17 09:12:00,
2013-03-17 04:22:00,28.0,21.0,-100.00,North,0,5.0,14.0,74,-99.99,,,-99.99,,2013-03-17 09:22:00,
2013-03-17 04:32:00,28.0,21.0,-100.00,North,0,5.0,14.0,74,-99.99,,,-99.99,,2013-03-17 09:32:00,
2013-03-17 04:43:00,28.0,20.0,-100.00,North,0,7.0,15.0,71,-99.99,,,-99.99,,2013-03-17 09:43:00,
2013-03-17 04:53:00,28.0,20.0,-100.00,North,350,4.0,14.0,72,-99.99,,,-99.99,,2013-03-17 09:53:00,
2013-03-17 05:03:00,28.0,20.0,-100.00,North,350,4.0,14.0,72,-99.99,,,-99.99,,2013-03-17 10:03:00,
2013-03-17 05:13:00,28.0,20.0,-100.00,North,0,4.0,13.0,74,-99.99,,,-99.99,,2013-03-17 10:13:00,
2013-03-17 05:23:00,27.0,20.0,-100.00,North,5,4.0,10.0,73,-99.99,,,-99.99,,2013-03-17 10:23:00,
2013-03-17 05:33:00,27.0,20.0,-100.00,North,5,4.0,10.0,73,-99.99,,,-99.99,,2013-03-17 10:33:00,
2013-03-17 05:42:00,27.0,20.0,-100.00,North,10,4.0,9.0,73,-99.99,,,-99.99,,2013-03-17 10:42:00,
2013-03-17 05:52:00,27.0,20.0,-100.00,North,0,4.0,11.0,72,-99.99,,,-99.99,,2013-03-17 10:52:00,
2013-03-17 06:02:00,27.0,20.0,-100.00,North,0,4.0,11.0,72,-99.99,,,-99.99,,2013-03-17 11:02:00,
2013-03-17 06:12:00,27.0,19.0,-100.00,North,0,6.0,10.0,71,-99.99,,,-99.99,,2013-03-17 11:12:00,
2013-03-17 06:22:00,27.0,19.0,-100.00,North,0,5.0,10.0,73,-99.99,,,-99.99,,2013-03-17 11:22:00,
2013-03-17 06:32:00,27.0,19.0,-100.00,North,0,5.0,10.0,73,-99.99,,,-99.99,,2013-03-17 11:32:00,
2013-03-17 06:42:00,27.0,19.0,-100.00,North,0,5.0,11.0,73,-99.99,,,-99.99,,2013-03-17 11:42:00,
2013-03-17 06:52:00,27.0,20.0,-100.00,North,0,4.0,12.0,75,-99.99,,,-99.99,,2013-03-17 11:52:00,
2013-03-17 07:02:00,27.0,20.0,-100.00,North,0,4.0,12.0,75,-99.99,,,-99.99,,2013-03-17 12:02:00,
2013-03-17 07:12:00,27.0,20.0,-100.00,North,0,6.0,11.0,74,-99.99,,,-99.99,,2013-03-17 12:12:00,
2013-03-17 07:22:00,27.0,20.0,-100.00,North,0,4.0,10.0,76,-99.99,,,-99.99,,2013-03-17 12:22:00,
2013-03-17 07:32:00,27.0,20.0,-100.00,North,0,4.0,10.0,76,-99.99,,,-99.99,,2013-03-17 12:32:00,
2013-03-17 07:43:00,27.0,20.0,-100.00,North,0,4.0,11.0,74,-99.99,,,-99.99,,2013-03-17 12:43:00,
2013-03-17 07:52:00,27.0,20.0,-100.00,North,0,4.0,9.0,75,-99.99,,,-99.99,,2013-03-17 12:52:00,
2013-03-17 08:02:00,27.0,20.0,-100.00,North,0,4.0,9.0,75,-99.99,,,-99.99,,2013-03-17 13:02:00,
2013-03-17 08:12:00,27.0,20.0,-100.00,North,10,3.0,10.0,76,-99.99,,,-99.99,,2013-03-17 13:12:00,
2013-03-17 08:22:00,27.0,19.0,-100.00,NNE,25,6.0,13.0,73,-99.99,,,-99.99,,2013-03-17 13:22:00,
2013-03-17 08:32:00,27.0,19.0,-100.00,NNE,25,6.0,13.0,73,-99.99,,,-99.99,,2013-03-17 13:32:00,
2013-03-17 08:42:00,27.0,20.0,-100.00,NNE,20,4.0,9.0,73,-99.99,,,-99.99,,2013-03-17 13:42:00,
2013-03-17 08:52:00,27.0,19.0,-100.00,NNE,20,6.0,11.0,70,-99.99,,,-99.99,,2013-03-17 13:52:00,
2013-03-17 09:02:00,27.0,19.0,-100.00,NNE,20,6.0,11.0,70,-99.99,,,-99.99,,2013-03-17 14:02:00,
2013-03-17 09:12:00,28.0,18.0,-100.00,NE,55,7.0,14.0,67,-99.99,,,-99.99,,2013-03-17 14:12:00,
2013-03-17 09:22:00,28.0,19.0,-100.00,NE,35,4.0,11.0,67,-99.99,,,-99.99,,2013-03-17 14:22:00,
2013-03-17 09:32:00,28.0,19.0,-100.00,NE,35,4.0,11.0,67,-99.99,,,-99.99,,2013-03-17 14:32:00,
2013-03-17 09:42:00,29.0,17.0,-100.00,NNE,25,8.0,12.0,62,-99.99,,,-99.99,,2013-03-17 14:42:00,
2013-03-17 09:53:00,29.0,16.0,-100.00,NE,50,6.0,13.0,58,-99.99,,,-99.99,,2013-03-17 14:53:00,
2013-03-17 10:02:00,29.0,16.0,-100.00,NE,50,6.0,13.0,58,-99.99,,,-99.99,,2013-03-17 15:02:00,
2013-03-17 10:12:00,30.0,17.0,-100.00,North,10,5.0,11.0,59,-99.99,,,-99.99,,2013-03-17 15:12:00,
2013-03-17 10:23:00,30.0,17.0,-100.00,North,0,7.0,14.0,57,-99.99,,,-99.99,,2013-03-17 15:23:00,
2013-03-17 10:33:00,30.0,17.0,-100.00,North,0,7.0,14.0,57,-99.99,,,-99.99,,2013-03-17 15:33:00,
2013-03-17 10:42:00,32.0,18.0,-100.00,NNE,15,6.0,17.0,55,-99.99,,,-99.99,,2013-03-17 15:42:00,
2013-03-17 10:53:00,33.0,18.0,-100.00,North,5,5.0,11.0,55,-99.99,,,-99.99,,2013-03-17 15:53:00,
2013-03-17 11:03:00,33.0,18.0,-100.00,North,5,5.0,11.0,55,-99.99,,,-99.99,,2013-03-17 16:03:00,
2013-03-17 11:12:00,32.0,17.0,-100.00,NNE,30,4.0,13.0,54,-99.99,,,-99.99,,2013-03-17 16:12:00,
2013-03-17 11:23:00,34.0,19.0,-100.00,NE,40,5.0,11.0,52,-99.99,,,-99.99,,2013-03-17 16:23:00,
2013-03-17 11:33:00,34.0,19.0,-100.00,NE,40,5.0,11.0,52,-99.99,,,-99.99,,2013-03-17 16:33:00,
2013-03-17 11:42:00,34.0,17.0,-100.00,NE,50,4.0,10.0,50,-99.99,,,-99.99,,2013-03-17 16:42:00,
2013-03-17 11:52:00,35.0,18.0,-100.00,ENE,70,5.0,11.0,50,-99.99,,,-99.99,,2013-03-17 16:52:00,
2013-03-17 12:02:00,35.0,18.0,-100.00,ENE,70,5.0,11.0,50,-99.99,,,-99.99,,2013-03-17 17:02:00,
2013-03-17 12:12:00,35.0,19.0,-100.00,ENE,65,9.0,14.0,52,-99.99,,,-99.99,,2013-03-17 17:12:00,
2013-03-17 12:22:00,35.0,19.0,-100.00,ENE,70,7.0,14.0,51,-99.99,,,-99.99,,2013-03-17 17:22:00,
2013-03-17 12:33:00,35.0,19.0,-100.00,ENE,70,7.0,14.0,51,-99.99,,,-99.99,,2013-03-17 17:33:00,
2013-03-17 12:42:00,35.0,20.0,-100.00,ENE,75,8.0,14.0,54,-99.99,,,-99.99,,2013-03-17 17:42:00,
2013-03-17 12:53:00,36.0,22.0,-100.00,NE,45,6.0,11.0,55,-99.99,,,-99.99,,2013-03-17 17:53:00,
2013-03-17 13:02:00,36.0,22.0,-100.00,NE,45,6.0,11.0,55,-99.99,,,-99.99,,2013-03-17 18:02:00,
2013-03-17 13:12:00,36.0,21.0,-100.00,NE,40,6.0,15.0,53,-99.99,,,-99.99,,2013-03-17 18:12:00,
2013-03-17 13:22:00,36.0,22.0,-100.00,NE,45,7.0,14.0,55,-99.99,,,-99.99,,2013-03-17 18:22:00,
2013-03-17 13:32:00,36.0,22.0,-100.00,NE,45,7.0,14.0,55,-99.99,,,-99.99,,2013-03-17 18:32:00,
2013-03-17 13:42:00,35.0,22.0,-100.00,ENE,75,6.0,13.0,58,-99.99,,,-99.99,,2013-03-17 18:42:00,
2013-03-17 13:52:00,36.0,24.0,-100.00,NE,35,4.0,13.0,60,-99.99,,,-99.99,,2013-03-17 18:52:00,
2013-03-17 14:02:00,36.0,24.0,-100.00,NE,35,4.0,13.0,60,-99.99,,,-99.99,,2013-03-17 19:02:00,
2013-03-17 14:12:00,36.0,23.0,-100.00,NE,45,6.0,13.0,59,-99.99,,,-99.99,,2013-03-17 19:12:00,
2013-03-17 14:22:00,37.0,23.0,-100.00,NE,40,6.0,14.0,58,-99.99,,,-99.99,,2013-03-17 19:22:00,
2013-03-17 14:33:00,37.0,23.0,-100.00,NE,40,6.0,14.0,58,-99.99,,,-99.99,,2013-03-17 19:33:00,
2013-03-17 14:42:00,37.0,24.0,-100.00,NE,55,4.0,15.0,59,-99.99,,,-99.99,,2013-03-17 19:42:00,
2013-03-17 14:53:00,36.0,23.0,-100.00,ENE,75,6.0,13.0,57,-99.99,,,-99.99,,2013-03-17 19:53:00,
2013-03-17 15:02:00,36.0,23.0,-100.00,ENE,75,6.0,13.0,57,-99.99,,,-99.99,,2013-03-17 20:02:00,
2013-03-17 15:12:00,37.0,24.0,-100.00,NE,35,7.0,14.0,57,-99.99,,,-99.99,,2013-03-17 20:12:00,
2013-03-17 15:22:00,38.0,24.0,-100.00,NE,35,6.0,12.0,58,-99.99,,,-99.99,,2013-03-17 20:22:00,
2013-03-17 15:33:00,38.0,24.0,-100.00,NE,35,6.0,12.0,58,-99.99,,,-99.99,,2013-03-17 20:33:00,
2013-03-17 15:42:00,36.0,23.0,-100.00,East,95,8.0,14.0,58,-99.99,,,-99.99,,2013-03-17 20:42:00,
2013-03-17 15:52:00,36.0,24.0,-100.00,NNE,30,10.0,17.0,59,-99.99,,,-99.99,,2013-03-17 20:52:00,
2013-03-17 16:03:00,36.0,24.0,-100.00,NNE,30,10.0,17.0,59,-99.99,,,-99.99,,2013-03-17 21:03:00,
2013-03-17 16:12:00,37.0,25.0,-100.00,NE,50,5.0,14.0,61,-99.99,,,-99.99,,2013-03-17 21:12:00,
2013-03-17 16:22:00,37.0,25.0,-100.00,NE,45,5.0,14.0,61,-99.99,,,-99.99,,2013-03-17 21:22:00,
2013-03-17 16:33:00,37.0,25.0,-100.00,NE,45,5.0,14.0,61,-99.99,,,-99.99,,2013-03-17 21:33:00,
2013-03-17 16:43:00,38.0,25.0,-100.00,ENE,75,6.0,15.0,59,-99.99,,,-99.99,,2013-03-17 21:43:00,
2013-03-17 16:52:00,37.0,25.0,-100.00,ENE,65,3.0,14.0,63,-99.99,,,-99.99,,2013-03-17 21:52:00,
2013-03-17 17:03:00,37.0,25.0,-100.00,ENE,65,3.0,14.0,63,-99.99,,,-99.99,,2013-03-17 22:03:00,
2013-03-17 17:12:00,37.0,24.0,-100.00,ENE,60,8.0,16.0,60,-99.99,,,-99.99,,2013-03-17 22:12:00,
2013-03-17 17:23:00,37.0,25.0,-100.00,ENE,70,9.0,16.0,61,-99.99,,,-99.99,,2013-03-17 22:23:00,
2013-03-17 17:33:00,37.0,25.0,-100.00,ENE,70,9.0,16.0,61,-99.99,,,-99.99,,2013-03-17 22:33:00,
2013-03-17 17:42:00,38.0,26.0,-100.00,East,80,5.0,10.0,62,-99.99,,,-99.99,,2013-03-17 22:42:00,
2013-03-17 17:53:00,37.0,25.0,-100.00,ENE,70,8.0,17.0,61,-99.99,,,-99.99,,2013-03-17 22:53:00,
2013-03-17 18:02:00,37.0,25.0,-100.00,ENE,70,8.0,17.0,61,-99.99,,,-99.99,,2013-03-17 23:02:00,
2013-03-17 18:12:00,36.0,25.0,-100.00,ENE,60,6.0,19.0,62,-99.99,,,-99.99,,2013-03-17 23:12:00,
2013-03-17 18:22:00,36.0,25.0,-100.00,East,80,5.0,16.0,63,-99.99,,,-99.99,,2013-03-17 23:22:00,
2013-03-17 18:33:00,36.0,25.0,-100.00,East,80,5.0,16.0,63,-99.99,,,-99.99,,2013-03-17 23:33:00,
2013-03-17 18:42:00,36.0,25.0,-100.00,ENE,70,6.0,14.0,65,-99.99,,,-99.99,,2013-03-17 23:42:00,
2013-03-17 18:53:00,36.0,26.0,-100.00,ENE,70,3.0,15.0,66,-99.99,,,-99.99,,2013-03-17 23:53:00,
2013-03-17 19:03:00,36.0,26.0,-100.00,ENE,70,3.0,15.0,66,-99.99,,,-99.99,,2013-03-18 00:03:00,
2013-03-17 19:12:00,35.0,25.0,-100.00,NE,45,6.0,13.0,66,-99.99,,,-99.99,,2013-03-18 00:12:00,
2013-03-17 19:22:00,35.0,26.0,-100.00,East,100,4.0,12.0,68,-99.99,,,-99.99,,2013-03-18 00:22:00,
2013-03-17 19:33:00,35.0,26.0,-100.00,East,100,4.0,12.0,68,-99.99,,,-99.99,,2013-03-18 00:33:00,
2013-03-17 19:42:00,35.0,26.0,-100.00,East,100,4.0,12.0,68,-99.99,,,-99.99,,2013-03-18 00:42:00,
2013-03-17 19:53:00,35.0,26.0,-100.00,ENE,65,5.0,16.0,69,-99.99,,,-99.99,,2013-03-18 00:53:00,
2013-03-17 20:02:00,35.0,26.0,-100.00,ENE,65,5.0,16.0,69,-99.99,,,-99.99,,2013-03-18 01:02:00,
2013-03-17 20:12:00,35.0,26.0,-100.00,NE,55,4.0,14.0,70,-99.99,,,-99.99,,2013-03-18 01:12:00,
2013-03-17 20:22:00,34.0,26.0,-100.00,ENE,75,5.0,11.0,70,-99.99,,,-99.99,,2013-03-18 01:22:00,
2013-03-17 20:32:00,34.0,26.0,-100.00,ENE,75,5.0,11.0,70,-99.99,,,-99.99,,2013-03-18 01:32:00,
2013-03-17 20:42:00,34.0,26.0,-100.00,ENE,75,5.0,13.0,72,-99.99,,,-99.99,,2013-03-18 01:42:00,
2013-03-17 20:52:00,34.0,26.0,-100.00,East,85,2.0,13.0,74,-99.99,,,-99.99,,2013-03-18 01:52:00,
2013-03-17 21:02:00,34.0,26.0,-100.00,East,85,2.0,13.0,74,-99.99,,,-99.99,,2013-03-18 02:02:00,
2013-03-17 21:12:00,34.0,26.0,-100.00,NE,55,4.0,11.0,72,-99.99,,,-99.99,,2013-03-18 02:12:00,
2013-03-17 21:22:00,33.0,26.0,-100.00,ENE,65,4.0,10.0,74,-99.99,,,-99.99,,2013-03-18 02:22:00,
2013-03-17 21:32:00,33.0,26.0,-100.00,ENE,65,4.0,10.0,74,-99.99,,,-99.99,,2013-03-18 02:32:00,
2013-03-17 21:42:00,33.0,26.0,-100.00,NNE,20,5.0,11.0,74,-99.99,,,-99.99,,2013-03-18 02:42:00,
2013-03-17 21:52:00,33.0,26.0,-100.00,East,85,6.0,14.0,74,-99.99,,,-99.99,,2013-03-18 02:52:00,
2013-03-17 22:03:00,33.0,26.0,-100.00,East,85,6.0,14.0,74,-99.99,,,-99.99,,2013-03-18 03:03:00,
2013-03-17 22:11:00,33.0,26.0,-100.00,NE,35,5.0,11.0,75,-99.99,,,-99.99,,2013-03-18 03:11:00,
2013-03-17 22:22:00,33.0,26.0,-100.00,NE,50,5.0,16.0,74,-99.99,,,-99.99,,2013-03-18 03:22:00,
2013-03-17 22:33:00,33.0,26.0,-100.00,NE,50,5.0,16.0,74,-99.99,,,-99.99,,2013-03-18 03:33:00,
2013-03-17 22:42:00,33.0,26.0,-100.00,NE,45,8.0,19.0,74,-99.99,,,-99.99,,2013-03-18 03:42:00,
2013-03-17 22:53:00,33.0,26.0,-100.00,NNE,20,4.0,11.0,74,-99.99,,,-99.99,,2013-03-18 03:53:00,
2013-03-17 23:03:00,33.0,26.0,-100.00,NNE,20,4.0,11.0,74,-99.99,,,-99.99,,2013-03-18 04:03:00,
2013-03-17 23:13:00,33.0,26.0,-100.00,NE,45,6.0,11.0,74,-99.99,,,-99.99,,2013-03-18 04:13:00,
2013-03-17 23:23:00,33.0,26.0,-100.00,NE,50,1.0,11.0,75,-99.99,,,-99.99,,2013-03-18 04:23:00,
2013-03-17 23:33:00,33.0,26.0,-100.00,NE,50,1.0,11.0,75,-99.99,,,-99.99,,2013-03-18 04:33:00,
2013-03-17 23:42:00,33.0,26.0,-100.00,NNE,20,3.0,14.0,75,-99.99,,,-99.99,,2013-03-18 04:42:00,
2013-03-17 23:53:00,33.0,26.0,-100.00,NNE,25,4.0,11.0,75,-99.99,,,-99.99,,2013-03-18 04:53:00,